Temp
-13 -13 -13 -14 -13 -14 -13 -13 -13 -13 -13 -13 -12 -12 -12 -12 -12 -12 -12 -13 -13 -13 -12 -12 -12 -13 -13 -13 -13 -13 -13 -13 -12 -12 -13 -13 -13 -13 -13 -14 -14 -14 -14
-13 -13 -14 -13 -13 -13 -14 -13 -13 -13 -13 -13 -13 -12 -12 -12 -12 -12 -12 -13 -13 -13 -13 -13 -13 -13 -13 -13 -13 -13 -13 -13 -13 -13 -13 -13 -14 -13 -13 -13 -14 -14 -14
-13 -13 -14 -13 -13 -14 -14 -14 -14 -13 -13 -13 -13 -13 -13 -13 -13 -13 -13 -13 -13 -13 -13 -13 -13 -13 -13 -13 -13 -13 -13 -13 -13 -13 -13 -13 -13 -13 -14 -14 -14 -14 -14
-13 -13 -14 -14 -14 -14 -14 -14 -14 -14 -14 -14 -14 -13 -13 -13 -13 -13 -14 -14 -14 -14 -14 -14 -14 -14 -14 -14 -14 -14 -14 -14 -14 -14 -14 -14 -14 -13 -13 -15 -15 -14 -14
-13 -14 -14 -14 -14 -14 -14 -14 -14 -14 -15 -14 -14 -14 -14 -14 -14 -14 -14 -14 -14 -14 -14 -14 -14 -14 -14 -14 -14 -15 -15 -14 -14 -14 -14 -14 -14 -14 -14 -13 -15 -15 -15
-15 -14 -14 -15 -15 -15 -15 -15 -15 -15 -15 -15 -15 -14 -14 -14 -14 -14 -15 -15 -15 -15 -15 -15 -15 -15 -15 -15 -15 -15 -15 -15 -15 -15 -15 -14 -14 -15 -15 -14 -14 -14 -16
-15 -15 -15 -15 -15 -15 -15 -15 -15 -15 -15 -15 -15 -15 -15 -15 -15 -15 -15 -15 -15 -15 -15 -16 -16 -16 -16 -16 -15 -15 -15 -15 -16 -15 -15 -15 -15 -15 -15 -15 -15 -14 -15
-17 -17 -16 -16 -15 -16 -16 -16 -16 -16 -16 -16 -16 -16 -16 -16 -16 -16 -16 -16 -16 -16 -16 -17 -16 -16 -16 -16 -16 -16 -16 -16 -16 -16 -16 -15 -15 -16 -15 -15 -15 -15 -15
-18 -17 -17 -17 -17 -16 -17 -17 -17 -17 -17 -17 -17 -17 -17 -17 -17 -17 -17 -17 -17 -17 -17 -17 -16 -16 -16 -16 -16 -17 -16 -16 -16 -16 -16 -16 -16 -16 -16 -16 -15 -15 -14
-17 -18 -18 -18 -17 -18 -18 -18 -18 -17 -17 -17 -17 -18 -18 -18 -18 -18 -17 -17 -17 -17 -17 -17 -17 -17 -17 -17 -17 -17 -17 -17 -17 -17 -17 -17 -17 -17 -16 -16 -16 -16 -15
-18 -18 -18 -18 -18 -18 -18 -18 -18 -18 -18 -18 -18 -18 -18 -18 -18 -18 -18 -18 -18 -18 -18 -18 -18 -17 -17 -17 -17 -17 -18 -18 -18 -18 -18 -18 -18 -17 -17 -17 -16 -16 -16
-19 -18 -18 -19 -19 -18 -19 -19 -19 -19 -19 -19 -19 -19 -19 -19 -19 -19 -19 -19 -19 -19 -19 -19 -19 -19 -19 -19 -19 -19 -19 -19 -19 -19 -19 -18 -18 -18 -17 -17 -17 -17 -17
-19 -19 -20 -20 -20 -20 -20 -20 -20 -20 -20 -20 -19 -19 -19 -20 -20 -20 -20 -20 -20 -20 -20 -20 -20 -20 -20 -20 -20 -20 -21 -20 -20 -20 -19 -19 -19 -19 -18 -18 -17 -17 -17
-20 -19 -20 -20 -21 -21 -21 -20 -20 -20 -20 -20 -20 -21 -21 -21 -20 -21 -21 -21 -21 -21 -21 -21 -21 -21 -21 -21 -21 -20 -20 -21 -21 -21 -20 -20 -19 -19 -19 -18 -18 -17 -17
-20 -20 -21 -21 -21 -21 -21 -21 -21 -21 -21 -21 -21 -21 -21 -21 -21 -21 -21 -22 -22 -22 -22 -22 -22 -21 -21 -21 -21 -21 -21 -21 -21 -21 -21 -20 -19 -19 -19 -18 -18 -18 -17
-21 -20 -22 -22 -21 -21 -21 -21 -21 -22 -22 -22 -21 -21 -22 -22 -22 -22 -22 -22 -22 -23 -23 -23 -23 -23 -23 -23 -23 -22 -22 -22 -21 -21 -21 -20 -20 -19 -19 -19 -18 -18 -18
-21 -20 -22 -22 -22 -22 -22 -22 -22 -22 -22 -22 -22 -22 -22 -22 -23 -23 -23 -23 -23 -24 -24 -24 -24 -25 -25 -25 -25 -25 -25 -24 -24 -23 -22 -21 -20 -19 -19 -19 -18 -18 -18
-22 -21 -22 -22 -22 -22 -22 -22 -22 -22 -22 -22 -23 -23 -23 -23 -23 -23 -24 -24 -24 -24 -24 -25 -25 -25 -25 -26 -26 -27 -28 -28 -28 -28 -27 -25 -23 -22 -20 -18 -18 -18 -18
-23 -23 -23 -23 -23 -23 -23 -23 -23 -23 -23 -23 -23 -23 -23 -24 -24 -24 -24 -24 -25 -25 -25 -25 -25 -26 -26 -27 -27 -28 -29 -29 -29 -28 -28 -28 -27 -26 -24 -21 -20 -19 -18
-23 -23 -23 -23 -23 -23 -23 -23 -23 -23 -23 -23 -24 -24 -24 -24 -24 -24 -24 -24 -25 -25 -26 -26 -26 -26 -27 -27 -28 -29 -29 -29 -29 -29 -28 -28 -28 -27 -27 -25 -23 -20 -19
-23 -24 -23 -23 -24 -23 -23 -23 -23 -23 -24 -24 -24 -24 -24 -24 -24 -24 -24 -24 -25 -25 -25 -26 -26 -26 -27 -28 -29 -30 -30 -29 -29 -29 -28 -28 -28 -27 -27 -26 -26 -24 -22
-24 -24 -24 -24 -24 -23 -24 -24 -24 -24 -24 -25 -24 -24 -24 -24 -24 -25 -25 -25 -25 -25 -25 -26 -27 -27 -27 -29 -30 -30 -30 -30 -29 -29 -28 -28 -27 -27 -27 -26 -26 -25 -25
-24 -24 -24 -24 -24 -24 -24 -24 -25 -25 -25 -25 -25 -24 -25 -25 -25 -25 -25 -25 -25 -25 -26 -26 -27 -28 -28 -29 -29 -30 -30 -30 -30 -29 -28 -28 -28 -27 -27 -26 -26 -25 -24
-24 -24 -24 -24 -24 -24 -25 -25 -25 -25 -25 -25 -25 -25 -25 -25 -25 -25 -25 -25 -25 -25 -26 -26 -27 -27 -28 -28 -29 -29 -30 -30 -30 -30 -28 -28 -28 -27 -27 -26 -25 -25 -24
-24 -24 -24 -24 -25 -25 -25 -25 -25 -25 -25 -25 -25 -25 -25 -25 -25 -25 -25 -25 -25 -25 -25 -26 -26 -27 -27 -28 -28 -28 -29 -29 -29 -29 -28 -28 -28 -27 -27 -27 -26 -25 -24
-24 -24 -25 -25 -25 -25 -26 -26 -25 -25 -25 -25 -25 -25 -25 -25 -25 -25 -25 -25 -25 -25 -26 -26 -26 -27 -27 -28 -28 -28 -28 -29 -29 -29 -28 -28 -27 -27 -27 -26 -25 -25 -24
Height
5748 5750 5753 5752 5751 5752 5751 5750 5751 5750 5750 5750 5749 5749 5748 5748 5747 5747 5745 5745 5743 5743 5742 5740 5738 5736 5735 5733 5731 5729 5727 5724 5723 5722 5722 5721 5720 5718 5719 5718 5715 5714 5712
5740 5742 5744 5742 5743 5743 5742 5742 5743 5742 5742 5741 5740 5740 5740 5739 5738 5737 5736 5734 5732 5732 5731 5729 5727 5725 5723 5721 5719 5717 5715 5712 5710 5710 5709 5710 5709 5707 5705 5705 5703 5701 5699
5730 5734 5736 5735 5736 5736 5736 5735 5735 5735 5733 5732 5732 5730 5730 5729 5729 5727 5725 5724 5722 5720 5719 5717 5714 5713 5710 5708 5706 5704 5702 5701 5696 5695 5694 5695 5695 5696 5692 5689 5689 5688 5686
5719 5725 5726 5727 5727 5728 5727 5726 5725 5726 5724 5723 5722 5721 5719 5718 5717 5717 5715 5713 5711 5710 5708 5705 5703 5701 5698 5695 5692 5690 5688 5686 5685 5681 5679 5679 5679 5680 5685 5679 5672 5673 5671
5712 5716 5717 5718 5718 5720 5718 5717 5717 5717 5716 5715 5713 5711 5709 5708 5706 5705 5703 5701 5699 5697 5696 5693 5690 5687 5684 5681 5679 5676 5673 5671 5671 5668 5666 5664 5663 5662 5663 5668 5665 5658 5654
5706 5707 5708 5709 5709 5709 5708 5708 5707 5707 5705 5704 5703 5701 5699 5697 5695 5693 5690 5688 5685 5682 5680 5678 5675 5672 5670 5667 5665 5662 5658 5656 5654 5653 5651 5650 5648 5646 5645 5647 5649 5650 5644
5697 5697 5697 5697 5698 5698 5697 5696 5696 5695 5693 5692 5690 5689 5686 5684 5682 5679 5676 5674 5671 5668 5665 5662 5659 5656 5653 5651 5649 5646 5643 5640 5639 5638 5636 5635 5633 5630 5629 5629 5632 5634 5633
5683 5683 5684 5685 5685 5685 5683 5683 5682 5682 5680 5678 5676 5675 5672 5670 5668 5665 5662 5659 5657 5654 5651 5648 5644 5640 5636 5634 5632 5630 5627 5624 5622 5620 5618 5617 5615 5614 5613 5612 5612 5617 5619
5670 5670 5671 5671 5673 5672 5671 5670 5668 5668 5666 5665 5663 5662 5659 5656 5654 5651 5648 5645 5642 5638 5635 5631 5627 5622 5618 5615 5612 5610 5607 5604 5602 5600 5598 5598 5597 5596 5596 5596 5595 5597 5603
5658 5657 5658 5660 5661 5661 5659 5658 5657 5656 5654 5651 5649 5648 5645 5642 5640 5637 5634 5630 5625 5621 5617 5613 5609 5605 5600 5597 5594 5591 5587 5585 5582 5579 5579 5578 5578 5579 5578 5579 5579 5580 5584
5647 5647 5647 5647 5649 5648 5647 5646 5645 5643 5641 5638 5636 5634 5631 5628 5625 5622 5619 5615 5610 5605 5601 5596 5591 5587 5583 5578 5575 5573 5568 5565 5562 5559 5559 5560 5558 5560 5560 5559 5562 5563 5566
5635 5635 5635 5635 5635 5636 5634 5633 5631 5630 5628 5626 5624 5621 5618 5615 5612 5607 5603 5598 5593 5587 5583 5578 5573 5568 5564 5559 5556 5553 5549 5545 5542 5539 5538 5538 5539 5540 5540 5541 5543 5546 5548
5623 5624 5624 5624 5625 5624 5623 5622 5620 5618 5616 5613 5611 5609 5605 5601 5597 5592 5588 5583 5578 5573 5567 5562 5558 5553 5547 5542 5538 5534 5530 5525 5521 5519 5518 5518 5518 5519 5520 5522 5524 5527 5530
5612 5616 5615 5614 5614 5613 5612 5611 5608 5606 5603 5600 5598 5595 5592 5588 5583 5578 5574 5569 5563 5558 5552 5546 5540 5534 5529 5526 5521 5518 5512 5508 5503 5499 5498 5498 5498 5500 5501 5503 5506 5509 5512
5603 5608 5606 5605 5603 5603 5601 5598 5596 5594 5592 5589 5587 5583 5579 5575 5570 5565 5560 5554 5548 5541 5534 5528 5521 5514 5509 5505 5499 5497 5492 5488 5485 5482 5479 5478 5478 5479 5481 5484 5487 5491 5493
5591 5601 5598 5592 5592 5592 5590 5588 5586 5584 5582 5578 5575 5571 5567 5562 5557 5552 5546 5539 5532 5524 5517 5510 5503 5495 5488 5483 5477 5473 5469 5464 5462 5461 5459 5458 5457 5459 5461 5465 5467 5470 5473
5578 5588 5588 5584 5583 5582 5579 5578 5576 5573 5571 5567 5563 5559 5555 5550 5544 5539 5532 5525 5517 5509 5501 5494 5486 5477 5470 5463 5456 5451 5445 5441 5437 5435 5434 5433 5433 5435 5440 5443 5446 5450 5453
5572 5580 5577 5573 5572 5570 5568 5567 5566 5563 5561 5557 5553 5549 5545 5540 5534 5528 5520 5513 5505 5497 5490 5482 5473 5465 5456 5448 5440 5434 5428 5423 5418 5413 5410 5409 5409 5409 5412 5418 5423 5427 5432
5566 5567 5567 5563 5562 5560 5559 5558 5557 5555 5551 5548 5544 5539 5535 5530 5524 5518 5511 5505 5497 5489 5480 5471 5462 5453 5443 5433 5425 5418 5413 5409 5404 5399 5394 5391 5388 5386 5386 5391 5395 5401 5407
5557 5557 5556 5554 5553 5551 5551 5550 5548 5545 5542 5538 5534 5530 5526 5521 5516 5510 5504 5498 5490 5481 5471 5461 5452 5441 5429 5418 5409 5402 5398 5395 5391 5386 5382 5377 5374 5370 5367 5366 5367 5374 5379
5547 5547 5547 5546 5546 5545 5543 5541 5538 5535 5532 5529 5526 5522 5519 5515 5510 5505 5499 5492 5484 5475 5465 5455 5444 5432 5419 5407 5395 5387 5382 5379 5376 5373 5370 5366 5362 5357 5353 5350 5349 5349 5352
5538 5539 5539 5538 5538 5537 5534 5532 5529 5527 5524 5521 5519 5517 5513 5509 5505 5500 5494 5487 5478 5469 5459 5448 5436 5424 5411 5398 5386 5377 5369 5363 5360 5358 5355 5353 5350 5346 5340 5336 5332 5328 5326
5528 5529 5530 5530 5529 5527 5525 5523 5521 5519 5517 5515 5513 5511 5508 5505 5500 5495 5489 5481 5473 5463 5453 5443 5432 5420 5407 5394 5381 5370 5360 5351 5346 5342 5341 5340 5337 5334 5330 5325 5321 5316 5313
5520 5519 5520 5520 5519 5518 5517 5516 5514 5512 5511 5510 5508 5506 5503 5499 5495 5490 5484 5476 5468 5459 5449 5438 5427 5416 5404 5391 5378 5366 5355 5345 5336 5330 5328 5328 5326 5324 5321 5315 5310 5303 5299
5510 5511 5511 5512 5511 5511 5510 5509 5508 5507 5506 5505 5503 5501 5498 5494 5490 5484 5477 5471 5463 5454 5444 5434 5423 5412 5400 5387 5372 5359 5348 5338 5329 5323 5319 5318 5318 5316 5312 5306 5300 5294 5289
5502 5503 5504 5504 5504 5504 5503 5503 5503 5502 5502 5501 5498 5496 5493 5489 5483 5478 5472 5465 5457 5448 5439 5429 5417 5404 5391 5379 5367 5354 5341 5329 5321 5315 5311 5309 5308 5306 5303 5298 5293 5286 5280
Wind_Speed
35 34 31 32 35 33 33 33 35 36 38 38 39 39 36 35 35 34 34 35 36 37 38 39 41 42 42 43 44 46 46 47 46 44 42 42 43 45 43 45 44 45 45
36 32 28 33 33 32 33 34 34 37 40 40 41 42 41 41 41 41 41 41 41 41 42 43 43 44 46 47 49 50 49 48 49 48 47 44 45 44 46 48 47 47 45
35 32 31 33 33 33 33 35 36 38 41 42 42 43 44 44 45 45 46 47 46 46 47 48 48 49 50 51 52 51 47 45 49 50 50 46 45 44 49 51 51 48 47
41 30 29 32 32 34 36 38 39 40 44 45 45 46 46 47 49 49 50 51 52 51 51 52 53 53 53 53 52 50 51 50 49 51 52 51 49 48 46 49 51 48 47
44 37 32 31 33 32 36 38 40 41 44 47 48 49 50 51 52 54 54 54 54 55 56 56 56 55 54 53 53 53 54 53 51 53 54 53 54 53 51 43 46 47 47
39 38 38 37 36 36 38 38 40 42 45 47 48 51 53 54 54 55 56 57 58 58 58 56 56 57 57 57 57 58 58 56 56 55 54 53 55 54 52 49 46 44 43
45 41 44 45 45 41 42 43 44 45 47 49 51 53 55 57 59 59 60 60 60 59 59 59 60 60 60 60 58 56 56 57 56 55 54 55 56 54 53 52 50 45 42
51 53 52 49 51 44 46 46 47 49 51 53 54 55 56 57 58 59 60 61 62 63 62 62 62 62 63 63 63 63 61 59 59 59 58 57 56 56 55 53 53 48 43
53 54 51 44 43 46 46 46 48 48 49 51 52 53 55 56 59 61 61 61 62 64 65 67 68 68 68 66 64 63 62 63 64 63 61 60 59 57 55 55 55 53 45
47 44 45 42 43 42 42 45 47 49 51 53 54 55 56 59 60 61 63 61 60 61 62 62 63 62 61 60 61 61 61 64 62 62 60 60 60 58 55 55 57 54 48
35 37 37 41 47 51 52 53 52 52 52 53 54 55 56 55 52 53 57 61 62 62 62 62 63 64 65 65 64 63 64 64 64 66 62 60 60 58 56 55 57 56 51
46 51 51 49 49 47 42 43 45 45 45 46 48 50 50 52 52 54 55 55 55 56 57 58 59 61 63 64 65 65 66 64 64 64 60 60 59 58 60 56 57 57 54
48 51 49 46 43 40 38 39 42 44 46 49 50 49 49 50 50 50 53 56 55 57 58 59 59 61 62 60 57 61 62 62 60 60 58 57 56 57 58 58 57 57 55
36 42 42 43 41 40 39 40 43 46 48 48 47 47 47 49 51 52 55 58 59 61 61 65 66 66 67 64 65 60 64 63 60 59 57 57 56 55 55 55 56 58 56
48 47 41 46 47 46 43 41 40 41 41 43 44 47 50 52 54 56 57 60 62 65 66 67 69 69 70 68 67 65 65 65 65 64 59 56 56 57 56 55 55 58 56
49 45 38 40 42 40 38 40 42 44 45 46 47 48 50 52 54 57 60 62 64 64 65 67 66 66 66 66 66 67 67 67 66 67 65 65 61 58 58 56 54 57 56
51 43 36 42 41 40 41 41 43 45 46 45 45 46 49 53 55 58 59 60 60 59 58 56 55 55 55 56 57 58 61 63 65 69 69 67 68 67 64 63 56 57 57
43 36 38 43 43 42 41 42 42 41 40 42 45 49 51 53 53 53 52 49 45 46 47 48 49 50 52 52 51 51 51 49 50 51 54 60 65 70 73 71 67 64 62
40 38 38 46 42 40 37 35 36 39 41 44 46 47 47 46 44 39 38 41 43 44 44 47 49 51 53 53 52 49 46 44 45 46 47 47 48 54 61 72 73 72 72
38 40 43 39 33 31 31 34 38 39 42 43 42 40 38 32 31 30 30 33 37 41 44 45 47 51 53 54 52 47 44 42 43 44 44 43 44 44 45 52 61 69 73
37 38 32 29 28 31 34 37 37 39 37 37 34 29 24 20 19 22 26 31 35 39 41 43 45 51 51 53 50 46 44 43 42 42 42 42 41 41 41 44 46 51 61
35 34 32 31 33 35 36 36 34 33 31 27 21 17 13 16 19 23 27 31 36 40 42 44 46 48 52 50 49 44 45 46 44 42 40 39 38 38 40 39 43 46 49
33 35 34 33 33 35 36 30 29 26 21 16 10 9 11 14 19 23 28 32 36 41 43 44 45 47 49 49 46 44 44 46 45 44 40 39 39 37 37 35 40 43 42
34 26 30 32 33 33 28 26 23 18 12 7 6 9 13 17 20 24 28 32 37 40 43 46 46 46 48 49 48 43 39 38 39 43 39 39 38 40 34 33 34 32 32
25 28 30 31 28 28 24 21 16 11 8 6 8 11 14 17 21 26 30 34 38 41 45 47 49 49 49 51 53 51 43 36 32 31 35 38 37 37 31 33 31 33 29
26 27 27 26 28 24 20 16 13 10 8 9 10 13 16 20 24 28 31 35 39 42 45 49 51 52 53 54 55 56 53 44 34 30 28 33 34 34 29 28 27 29 27
Wind_Direction
275 275 276 272 266 266 265 264 267 270 274 277 278 279 278 277 278 280 282 285 283 282 283 284 285 286 286 287 288 287 287 288 287 286 286 283 281 280 279 279 279 279 282
271 272 268 266 268 262 262 264 266 268 272 273 276 279 281 281 281 283 286 286 287 285 284 284 285 288 290 289 289 289 287 287 287 285 284 280 280 281 279 281 279 280 283
269 270 271 270 268 265 265 267 270 273 273 274 273 274 277 279 281 284 286 288 288 287 287 288 288 288 289 288 288 288 289 290 288 288 287 283 280 277 281 280 279 280 285
274 271 268 268 268 267 266 268 268 268 269 271 273 274 276 278 280 283 285 287 288 287 286 286 286 286 285 286 287 289 291 291 288 288 287 284 281 279 279 277 278 281 286
268 269 267 268 269 270 267 268 270 271 270 272 273 275 277 278 281 283 285 285 285 285 286 287 287 286 287 286 287 289 289 289 285 286 286 284 282 281 282 275 273 281 288
267 269 268 266 266 269 272 272 271 271 273 274 275 276 278 280 281 282 284 284 284 285 285 286 286 287 287 285 285 286 287 285 283 283 282 283 283 281 280 278 274 276 283
271 266 268 271 272 274 272 271 273 272 273 275 276 277 279 280 281 282 283 283 284 285 286 286 287 287 287 287 287 287 286 285 283 281 281 284 283 279 278 278 275 275 278
269 273 273 275 275 273 272 273 273 274 275 275 276 277 279 280 281 283 285 286 286 287 288 289 288 288 288 289 288 287 287 283 279 276 279 279 277 275 277 276 273 271 274
271 276 277 277 274 272 272 273 273 273 275 277 279 281 283 284 285 286 287 287 288 288 289 290 290 291 290 288 286 283 280 277 277 277 275 275 273 271 274 273 269 268 268
269 270 275 274 274 269 268 271 273 277 279 282 283 284 283 283 285 287 290 293 293 291 290 290 290 288 287 287 286 284 283 280 277 276 275 274 271 270 270 270 267 266 266
257 262 268 275 278 278 282 282 282 282 282 282 282 284 286 289 291 292 292 293 291 289 288 286 286 286 286 286 285 284 284 281 279 278 274 272 269 268 267 266 265 264 263
276 275 278 284 289 289 287 285 285 286 287 289 290 291 292 291 290 288 288 287 290 291 292 294 293 293 292 289 288 286 283 281 279 276 272 270 268 265 263 261 261 260 261
278 278 285 287 284 285 286 289 291 292 292 291 291 292 289 287 287 290 291 291 295 295 294 293 293 294 294 294 292 289 283 279 277 275 273 270 269 265 262 260 257 257 257
272 278 278 279 284 289 291 292 293 292 292 291 289 288 292 292 291 293 293 294 294 295 295 296 296 296 293 291 288 286 286 285 281 276 273 271 268 265 264 260 259 257 255
271 271 280 287 290 291 293 292 293 293 292 291 291 292 293 294 294 296 297 298 298 299 300 299 297 295 293 292 291 286 284 281 279 279 275 272 270 267 263 258 258 259 255
265 272 291 286 288 287 289 290 290 291 291 290 291 293 294 298 300 302 301 300 301 301 299 297 295 293 292 289 287 284 282 281 278 276 273 271 269 267 266 262 256 256 255
280 281 286 280 282 283 287 288 292 292 292 295 297 301 302 301 302 303 304 303 302 302 302 302 301 301 300 298 294 290 286 282 281 277 273 272 270 266 264 263 259 257 255
277 279 288 286 285 286 286 287 289 291 293 298 300 301 303 303 304 304 306 308 311 311 310 310 309 307 307 305 300 297 293 289 288 288 284 278 274 271 264 259 259 258 257
273 277 275 279 283 282 284 288 288 291 296 298 300 301 302 305 307 310 315 315 315 315 315 315 316 314 311 307 304 299 294 287 286 287 286 282 279 276 272 265 257 253 253
266 273 275 278 280 280 283 286 290 293 296 298 301 305 306 309 316 321 328 332 331 328 325 324 328 326 321 317 309 301 296 286 283 285 288 286 285 280 279 272 264 257 251
266 270 275 276 281 284 286 289 292 294 296 300 302 303 310 319 334 339 343 347 347 345 339 333 333 339 330 325 315 306 299 292 282 283 280 286 288 289 287 277 272 264 254
268 269 274 275 280 286 287 289 291 296 298 297 298 304 322 332 338 346 350 351 352 353 350 344 340 340 342 332 327 314 305 298 291 282 283 287 287 293 295 287 283 285 268
264 266 269 272 280 284 286 286 295 294 290 291 295 320 333 341 346 348 350 352 353 355 355 351 346 344 344 341 332 325 316 302 296 288 283 286 293 295 298 292 289 284 273
267 263 267 274 279 281 280 287 286 281 278 276 310 322 333 339 342 345 348 351 352 353 355 356 353 349 348 348 344 336 324 316 305 297 284 285 291 294 295 298 298 288 271
262 265 270 273 272 275 280 278 269 260 253 278 302 320 331 337 341 343 347 349 350 351 353 354 356 356 354 353 354 350 342 328 315 301 281 278 284 289 295 304 304 303 290
262 265 266 265 268 273 269 258 250 241 254 280 303 318 327 333 337 340 342 346 348 350 350 351 355 356 356 356 356 357 353 343 329 312 293 277 282 288 294 302 305 309 304